TimeIST,TemperatureF,Dew PointF,Humidity,Sea Level PressureIn,VisibilityMPH,Wind Direction,Wind SpeedMPH,Gust SpeedMPH,PrecipitationIn,Events,Conditions,WindDirDegrees,DateUTC
12:00 AM,60.8,48.2,63,29.98,0.6,Calm,Calm,-,N/A,,Smoke,0,2012-11-24 18:30:00
12:30 AM,59.0,50.0,72,29.95,0.6,Calm,Calm,-,N/A,,Smoke,0,2012-11-24 19:00:00
1:00 AM,59.0,50.0,72,29.95,0.6,Calm,Calm,-,N/A,,Smoke,0,2012-11-24 19:30:00
1:30 AM,59.0,50.0,72,29.95,0.6,Calm,Calm,-,N/A,,Smoke,0,2012-11-24 20:00:00
2:30 AM,57.2,50.0,77,29.95,0.5,Calm,Calm,-,N/A,,Smoke,0,2012-11-24 21:00:00
3:00 AM,55.4,48.2,77,29.95,0.5,Calm,Calm,-,N/A,,Smoke,0,2012-11-24 21:30:00
3:30 AM,53.6,48.2,82,29.95,0.5,Calm,Calm,-,N/A,,Smoke,0,2012-11-24 22:00:00
4:00 AM,53.6,48.2,82,29.95,0.4,Calm,Calm,-,N/A,,Smoke,0,2012-11-24 22:30:00
4:30 AM,51.8,48.2,88,29.95,0.4,Calm,Calm,-,N/A,,Smoke,0,2012-11-24 23:00:00
5:00 AM,53.6,50.0,88,29.95,0.4,Calm,Calm,-,N/A,Fog,Shallow Fog,0,2012-11-24 23:30:00
5:30 AM,53.6,50.0,88,29.95,0.4,Calm,Calm,-,N/A,Fog,Shallow Fog,0,2012-11-25 00:00:00
6:00 AM,51.8,50.0,94,29.95,0.4,Calm,Calm,-,N/A,Fog,Shallow Fog,0,2012-11-25 00:30:00
6:30 AM,51.8,48.2,88,29.95,0.3,West,4.6,-,N/A,Fog,Shallow Fog,280,2012-11-25 01:00:00
7:00 AM,51.8,50.0,94,29.98,0.3,WSW,3.5,-,N/A,Fog,Shallow Fog,240,2012-11-25 01:30:00
8:30 AM,57.2,50.0,77,30.01,0.3,SW,3.5,-,N/A,Fog,Shallow Fog,220,2012-11-25 03:00:00
9:00 AM,59.0,48.2,67,30.01,0.4,SW,4.6,-,N/A,Fog,Shallow Fog,230,2012-11-25 03:30:00
10:00 AM,64.4,48.2,56,30.01,0.7,WSW,4.6,-,N/A,,Smoke,240,2012-11-25 04:30:00
10:30 AM,66.2,48.2,52,30.01,0.9,WSW,4.6,-,N/A,,Smoke,240,2012-11-25 05:00:00
11:30 AM,71.6,46.4,41,30.01,1.0,West,6.9,-,N/A,,Smoke,280,2012-11-25 06:00:00
12:00 PM,73.4,46.4,38,29.98,1.1,West,6.9,-,N/A,,Smoke,280,2012-11-25 06:30:00
12:30 PM,73.4,46.4,38,29.98,1.1,West,5.8,-,N/A,,Smoke,260,2012-11-25 07:00:00
1:00 PM,75.2,46.4,36,29.95,1.1,WNW,6.9,-,N/A,,Smoke,300,2012-11-25 07:30:00
1:30 PM,77.0,44.6,32,29.95,1.3,WNW,8.1,-,N/A,,Smoke,290,2012-11-25 08:00:00
2:00 PM,77.0,44.6,32,29.95,1.3,WNW,8.1,-,N/A,,Smoke,300,2012-11-25 08:30:00
2:30 PM,77.0,41.0,28,29.92,1.6,NW,9.2,-,N/A,,Smoke,310,2012-11-25 09:00:00
3:00 PM,77.0,41.0,28,29.92,1.6,NW,10.4,-,N/A,,Smoke,310,2012-11-25 09:30:00
3:30 PM,77.0,39.2,26,29.92,1.7,NW,10.4,-,N/A,,Smoke,320,2012-11-25 10:00:00
4:30 PM,75.2,41.0,29,29.92,-9999.0,NW,6.9,-,N/A,,Haze,310,2012-11-25 11:00:00
5:00 PM,73.4,41.0,31,29.92,-9999.0,WNW,5.8,-,N/A,,Haze,290,2012-11-25 11:30:00
5:30 PM,71.6,42.8,35,29.92,-9999.0,WNW,4.6,-,N/A,,Haze,290,2012-11-25 12:00:00
6:00 PM,71.6,42.8,35,29.92,-9999.0,West,4.6,-,N/A,,Haze,280,2012-11-25 12:30:00
7:00 PM,66.2,44.6,46,29.95,1.4,West,3.5,-,N/A,,Smoke,260,2012-11-25 13:30:00
7:30 PM,64.4,44.6,49,29.95,1.4,Calm,Calm,-,N/A,,Smoke,0,2012-11-25 14:00:00
8:00 PM,64.4,44.6,49,29.95,1.1,WSW,3.5,-,N/A,,Smoke,250,2012-11-25 14:30:00
9:00 PM,64.4,46.4,52,29.95,0.9,WNW,3.5,-,N/A,,Smoke,290,2012-11-25 15:30:00
9:30 PM,64.4,46.4,52,29.95,0.9,West,2.3,-,N/A,,Smoke,270,2012-11-25 16:00:00
10:00 PM,62.6,46.4,55,29.98,0.7,West,2.3,-,N/A,,Smoke,260,2012-11-25 16:30:00
10:30 PM,60.8,46.4,59,29.98,0.6,West,2.3,-,N/A,,Smoke,270,2012-11-25 17:00:00
11:00 PM,60.8,46.4,59,29.98,0.6,WSW,4.6,-,N/A,,Smoke,250,2012-11-25 17:30:00
11:30 PM,60.8,46.4,59,29.98,0.7,WSW,4.6,-,N/A,,Smoke,250,2012-11-25 18:00:00